Weather at Rivne International Airport

Public forecast

Using degrees Celsius for public forecast. Weather courtesy of forecast.io.

Current aviation weather report (METAR) for Rivne International Airport

Retrieved 2020/10/31 06:30 UTC (9 seconds ago):

UKLR 310630Z 35003MPS 310V020 8000 SCT023 06/06 Q1019 NOSIG

Aviation forecast (TAF) for Rivne International Airport

Forecast is more than 12 hours old.

Retrieved 2019/08/16 12:15 UTC (1 year ago):

TAF TAF UKLR 161105Z 1612/1821 35003MPS 9999 BKN020 SCT023CB